H1 CPF 2 NER 2024 10 8 9 282 01 glonass129 H2 1106402 9129 37868 2024 10 8 0 0 0 2024 10 11 23 45 0 900 1 1 0 0 0 1 H9 10 0 60591 0.00000 0 9212473.908 -7116368.886 -22656063.885 10 0 60591 900.00000 0 9936327.715 -4380569.584 -23045194.952 10 0 60591 1800.00000 0 10865833.058 -1686770.899 -22985085.577 10 0 60591 2700.00000 0 11977066.186 898559.421 -22477137.273 10 0 60591 3600.00000 0 13235001.602 3314531.177 -21531493.351 10 0 60591 4500.00000 0 14594934.377 5508125.396 -20166820.965 10 0 60591 5400.00000 0 16004326.619 7436148.224 -18409926.394 10 0 60591 6300.00000 0 17404999.111 9066765.330 -16295212.484 10 0 60591 7200.00000 0 18735574.876 10380555.208 -13863990.282 10 0 60591 8100.00000 0 19934071.204 11371040.357 -11163659.522 10 0 60591 9000.00000 0 20940530.900 12044677.339 -8246774.947 10 0 60591 9900.00000 0 21699582.369 12420309.428 -5170017.508 10 0 60591 10800.00000 0 22162821.580 12528107.934 -1993090.961 10 0 60591 11700.00000 0 22290916.907 12408049.337 1222434.464 10 0 60591 12600.00000 0 22055349.717 12107994.361 4414308.960 10 0 60591 13500.00000 0 21439719.084 11681451.173 7520798.023 10 0 60591 14400.00000 0 20440557.205 11185117.472 10481862.988 10 0 60591 15300.00000 0 19067622.458 10676304.822 13240305.445 10 0 60591 16200.00000 0 17343658.439 10210352.918 15742854.783 10 0 60591 17100.00000 0 15303629.145 9838141.391 17941179.485 10 0 60591 18000.00000 0 12993461.643 9603802.370 19792804.240 10 0 60591 18900.00000 0 10468347.428 9542728.578 21261916.864 10 0 60591 19800.00000 0 7790671.284 9679959.464 22320050.905 10 0 60591 20700.00000 0 5027651.483 10029012.483 22946631.896 10 0 60591 21600.00000 0 2248786.700 10591208.562 23129377.402 10 0 60591 22500.00000 0 -476787.129 11355520.792 22864543.318 10 0 60591 23400.00000 0 -3082922.849 12298954.137 22157011.167 10 0 60591 24300.00000 0 -5508964.240 13387442.372 21020213.692 10 0 60591 25200.00000 0 -7702022.061 14577227.150 19475898.564 10 0 60591 26100.00000 0 -9618930.302 15816664.062 17553732.805 10 0 60591 27000.00000 0 -11227801.534 17048382.439 15290753.303 10 0 60591 27900.00000 0 -12509116.141 18211710.358 12730671.785 10 0 60591 28800.00000 0 -13456299.033 19245264.314 9923045.624 10 0 60591 29700.00000 0 -14075758.536 20089595.226 6922328.821 10 0 60591 30600.00000 0 -14386384.587 20689778.975 3786820.389 10 0 60591 31500.00000 0 -14418526.260 20997841.000 577530.114 10 0 60591 32400.00000 0 -14212491.052 20974910.663 -2643016.101 10 0 60591 33300.00000 0 -13816629.187 20593011.876 -5812007.159 10 0 60591 34200.00000 0 -13285084.458 19836411.573 -8867588.517 10 0 60591 35100.00000 0 -12675307.989 18702466.331 -11750088.670 10 0 60591 36000.00000 0 -12045441.922 17201928.910 -14403204.391 10 0 60591 36900.00000 0 -11451685.973 15358699.909 -16775119.440 10 0 60591 37800.00000 0 -10945760.631 13209033.704 -18819533.005 10 0 60591 38700.00000 0 -10572576.588 10800231.536 -20496576.243 10 0 60591 39600.00000 0 -10368210.858 8188876.781 -21773597.887 10 0 60591 40500.00000 0 -10358276.496 5438687.066 -22625803.053 10 0 60591 41400.00000 0 -10556755.515 2618074.128 -23036732.717 10 0 60591 42300.00000 0 -10965344.330 -202485.431 -22998575.006 10 0 60591 43200.00000 0 -11573338.746 -2953157.786 -22512303.092 10 0 60591 44100.00000 0 -12358062.210 -5567424.392 -21587638.231 10 0 60591 45000.00000 0 -13285817.822 -7984607.900 -20242840.060 10 0 60591 45900.00000 0 -14313322.272 -10152146.800 -18504329.761 10 0 60591 46800.00000 0 -15389559.659 -12027525.369 -16406154.913 10 0 60591 47700.00000 0 -16457975.608 -13579780.369 -13989307.903 10 0 60591 48600.00000 0 -17458918.105 -14790524.230 -11300912.434 10 0 60591 49500.00000 0 -18332221.569 -15654444.926 -8393295.015 10 0 60591 50400.00000 0 -19019825.077 -16179264.820 -5322960.355 10 0 60591 51300.00000 0 -19468314.798 -16385163.346 -2149491.140 10 0 60591 52200.00000 0 -19631284.319 -16303690.631 1065606.211 10 0 60591 53100.00000 0 -19471414.598 -15976220.043 4260087.446 10 0 60591 54000.00000 0 -18962187.327 -15452006.462 7372165.477 10 0 60591 54900.00000 0 -18089160.982 -14785932.922 10341692.107 10 0 60591 55800.00000 0 -16850757.087 -14036040.616 13111304.669 10 0 60591 56700.00000 0 -15258524.452 -13260945.697 15627516.791 10 0 60591 57600.00000 0 -13336870.520 -12517250.399 17841733.808 10 0 60591 58500.00000 0 -11122270.638 -11857055.859 19711174.849 10 0 60591 59400.00000 0 -8661987.141 -11325679.477 21199685.459 10 0 60591 60300.00000 0 -6012349.842 -10959671.124 22278426.582 10 0 60591 61200.00000 0 -3236667.173 -10785210.231 22926427.714 10 0 60591 62100.00000 0 -402852.082 -10816950.320 23130994.320 10 0 60591 63000.00000 0 2419141.652 -11057359.427 22887961.807 10 0 60591 63900.00000 0 5159969.080 -11496584.821 22201790.702 10 0 60591 64800.00000 0 7753522.307 -12112849.094 21085500.207 10 0 60591 65700.00000 0 10139430.204 -12873363.030 19560439.818 10 0 60591 66600.00000 0 12265327.058 -13735719.230 17655901.430 10 0 60591 67500.00000 0 14088796.445 -14649710.396 15408577.235 10 0 60591 68400.00000 0 15578909.211 -15559497.984 12861871.552 10 0 60591 69300.00000 0 16717290.627 -16406041.641 10065077.877 10 0 60591 70200.00000 0 17498670.911 -17129688.030 7072435.324 10 0 60591 71100.00000 0 17930894.673 -17672809.933 3942081.564 10 0 60591 72000.00000 0 18034387.544 -17982383.419 734922.102 10 0 60591 72900.00000 0 17841101.416 -18012392.513 -2486561.993 10 0 60591 73800.00000 0 17392982.190 -17725957.422 -5659543.856 10 0 60591 74700.00000 0 16740024.852 -17097093.566 -8722092.682 10 0 60591 75600.00000 0 15937998.784 -16112024.157 -11614401.625 10 0 60591 76500.00000 0 15045940.904 -14769988.091 -14279975.707 10 0 60591 77400.00000 0 14123524.516 -13083506.698 -16666754.396 10 0 60591 78300.00000 0 13228417.300 -11078096.303 -18728145.037 10 0 60591 79200.00000 0 12413742.290 -8791437.580 -20423945.345 10 0 60591 80100.00000 0 11725751.075 -6272036.254 -21721135.801 10 0 60591 81000.00000 0 11201808.971 -3577431.554 -22594525.926 10 0 60591 81900.00000 0 10868778.055 -772028.139 -23027241.734 10 0 60591 82800.00000 0 10741866.434 2075356.856 -23011045.320 10 0 60591 83700.00000 0 10823991.699 4894128.219 -22546481.229 10 0 60591 84600.00000 0 11105684.228 7614617.864 -21642847.941 10 0 60591 85500.00000 0 11565532.738 10170747.637 -20317996.440 10 0 60592 0.00000 0 12171151.269 12502538.769 -18597961.465 10 0 60592 900.00000 0 12880625.166 14558365.439 -16516433.148 10 0 60592 1800.00000 0 13644372.286 16296856.891 -14114083.144 10 0 60592 2700.00000 0 14407340.431 17688375.048 -11437756.604 10 0 60592 3600.00000 0 15111446.300 18716005.329 -8539548.985 10 0 60592 4500.00000 0 15698152.724 19376023.469 -5475785.700 10 0 60592 5400.00000 0 16111075.283 19677821.618 -2305925.131 10 0 60592 6300.00000 0 16298508.735 19643299.721 908593.429 10 0 60592 7200.00000 0 16215767.580 19305750.263 4105534.591 10 0 60592 8100.00000 0 15827243.209 18708285.223 7223061.867 10 0 60592 9000.00000 0 15108092.270 17901872.625 10200920.496 10 0 60592 9900.00000 0 14045486.370 16943065.757 12981586.247 10 0 60592 10800.00000 0 12639371.460 15891520.270 15511359.347 10 0 60592 11700.00000 0 10902705.454 14807402.591 17741384.004 10 0 60592 12600.00000 0 8861163.904 13748797.066 19628575.448 10 0 60592 13500.00000 0 6552325.125 12769218.932 21136438.263 10 0 60592 14400.00000 0 4024367.176 11915335.617 22235761.731 10 0 60592 15300.00000 0 1334328.756 11224990.269 22905179.891 10 0 60592 16200.00000 0 -1453996.321 10725609.082 23131586.294 10 0 60592 17100.00000 0 -4272446.599 10433058.447 22910395.623 10 0 60592 18000.00000 0 -7051066.241 10350999.853 22245646.735 10 0 60592 18900.00000 0 -9720760.068 10470770.238 21149944.164 10 0 60592 19800.00000 0 -12215922.541 10771794.190 19644237.627 10 0 60592 20700.00000 0 -14476933.136 11222512.503 17757441.873 10 0 60592 21600.00000 0 -16452415.322 11781790.189 15525901.980 10 0 60592 22500.00000 0 -18101165.257 12400746.766 12992712.147 10 0 60592 23400.00000 0 -19393669.155 13024933.535 10206899.061 10 0 60592 24300.00000 0 -20313144.794 13596767.243 7222483.910 10 0 60592 25200.00000 0 -20856062.066 14058117.839 4097439.955 10 0 60592 26100.00000 0 -21032119.113 14352940.586 892565.389 10 0 60592 27000.00000 0 -20863673.646 14429839.927 -2329706.496 10 0 60592 27900.00000 0 -20384652.375 14244454.599 -5506535.894 10 0 60592 28800.00000 0 -19638984.114 13761560.453 -8575918.429 10 0 60592 29700.00000 0 -18678622.945 12956799.110 -11477914.420 10 0 60592 30600.00000 0 -17561245.878 11817956.399 -14155839.421 10 0 60592 31500.00000 0 -16347723.763 10345733.889 -16557390.623 10 0 60592 32400.00000 0 -15099474.208 8553978.734 -18635685.202 10 0 60592 33300.00000 0 -13875810.338 6469360.573 -20350188.739 10 0 60592 34200.00000 0 -12731399.216 4130508.157 -21667514.379 10 0 60592 35100.00000 0 -11713938.776 1586641.782 -22562076.556 10 0 60592 36000.00000 0 -10862152.132 -1104240.854 -23016586.429 10 0 60592 36900.00000 0 -10204184.180 -3877548.645 -23022379.782 10 0 60592 37800.00000 0 -9756467.516 -6664558.758 -22579571.877 10 0 60592 38700.00000 0 -9523104.310 -9395052.340 -21697037.396 10 0 60592 39600.00000 0 -9495788.388 -12000013.681 -20392217.312 10 0 60592 40500.00000 0 -9654268.636 -14414280.110 -18690757.921 10 0 60592 41400.00000 0 -9967331.793 -16579032.516 -16625990.593 10 0 60592 42300.00000 0 -10394260.823 -18444023.628 -14238263.853 10 0 60592 43200.00000 0 -10886705.204 -19969452.695 -11574142.019 10 0 60592 44100.00000 0 -11390882.459 -21127410.446 -8685487.151 10 0 60592 45000.00000 0 -11850016.759 -21902836.462 -5628442.993 10 0 60592 45900.00000 0 -12206910.982 -22293951.721 -2462341.264 10 0 60592 46800.00000 0 -12406543.585 -22312150.969 751448.208 10 0 60592 47700.00000 0 -12398581.116 -21981362.014 3950701.199 10 0 60592 48600.00000 0 -12139701.229 -21336900.992 7073534.103 10 0 60592 49500.00000 0 -11595629.374 -20423873.176 10059587.856 10 0 60592 50400.00000 0 -10742804.520 -19295187.356 12851178.878 10 0 60592 51300.00000 0 -9569604.831 -18009267.188 15394396.131 10 0 60592 52200.00000 0 -8077082.401 -16627554.936 17640124.705 10 0 60592 53100.00000 0 -6279176.323 -15211911.029 19544977.747 10 0 60592 54000.00000 0 -4202394.533 -13822016.734 21072120.459 10 0 60592 54900.00000 0 -1884976.402 -12512886.760 22191971.760 10 0 60592 55800.00000 0 624430.970 -11332594.020 22882771.221 10 0 60592 56700.00000 0 3268530.240 -10320300.016 23131001.145 10 0 60592 57600.00000 0 5983494.933 -9504672.009 22931655.850 10 0 60592 58500.00000 0 8701369.149 -8902752.538 22288352.587 10 0 60592 59400.00000 0 11352649.193 -8519328.641 21213280.985 10 0 60592 60300.00000 0 13868942.545 -8346827.847 19726990.477 10 0 60592 61200.00000 0 16185595.752 -8365746.606 17858017.867 10 0 60592 62100.00000 0 18244183.210 -8545594.796 15642360.021 10 0 60592 63000.00000 0 19994753.745 -8846318.431 13122799.572 10 0 60592 63900.00000 0 21397740.895 -9220142.345 10348094.594 10 0 60592 64800.00000 0 22425456.092 -9613756.516 7372046.150 10 0 60592 65700.00000 0 23063100.699 -9970754.389 4252460.509 10 0 60592 66600.00000 0 23309252.655 -10234220.112 1050025.633 10 0 60592 67500.00000 0 23175805.520 -10349354.287 -2172876.146 10 0 60592 68400.00000 0 22687361.023 -10266025.422 -5353395.415 10 0 60592 69300.00000 0 21880099.704 -9941136.661 -8429457.589 10 0 60592 70200.00000 0 20800176.993 -9340704.811 -11340993.424 10 0 60592 71100.00000 0 19501712.747 -8441560.692 -14031132.094 10 0 60592 72000.00000 0 18044460.171 -7232596.030 -16447331.332 10 0 60592 72900.00000 0 16491254.025 -5715501.714 -18542420.671 10 0 60592 73800.00000 0 14905347.590 -3904964.260 -20275535.731 10 0 60592 74700.00000 0 13347752.585 -1828310.915 -21612924.132 10 0 60592 75600.00000 0 11874695.717 475382.357 -22528606.641 10 0 60592 76500.00000 0 10535300.144 2956682.552 -23004880.561 10 0 60592 77400.00000 0 9369589.953 5557632.193 -23032655.937 10 0 60592 78300.00000 0 8406901.316 8213945.258 -22611618.864 10 0 60592 79200.00000 0 7664766.151 10857473.851 -21750219.911 10 0 60592 80100.00000 0 7148313.500 13418841.757 -20465489.276 10 0 60592 81000.00000 0 6850211.552 15830134.496 -18782683.791 10 0 60592 81900.00000 0 6751150.089 18027533.611 -16734774.169 10 0 60592 82800.00000 0 6820840.311 19953785.731 -14361783.932 10 0 60592 83700.00000 0 7019487.241 21560404.445 -11709994.205 10 0 60592 84600.00000 0 7299670.281 22809514.694 -8831030.930 10 0 60592 85500.00000 0 7608550.738 23675264.643 -5780853.157 10 0 60593 0.00000 0 7890311.824 24144748.424 -2618662.963 10 0 60593 900.00000 0 8088727.645 24218403.840 594243.270 10 0 60593 1800.00000 0 8149752.306 23909870.329 3795655.669 10 0 60593 2700.00000 0 8024020.886 23245316.150 6923646.919 10 0 60593 3600.00000 0 7669157.273 22262264.024 9917756.902 10 0 60593 4500.00000 0 7051792.808 21007965.844 12720145.694 10 0 60593 5400.00000 0 6149211.799 19537394.920 15276693.711 10 0 60593 6300.00000 0 4950555.508 17910939.488 17538029.290 10 0 60593 7200.00000 0 3457534.434 16191893.039 19460465.517 10 0 60593 8100.00000 0 1684618.795 14443844.889 21006829.863 10 0 60593 9000.00000 0 -341301.739 12728078.126 22147172.151 10 0 60593 9900.00000 0 -2581776.478 11101081.602 22859338.352 10 0 60593 10800.00000 0 -4988136.859 9612277.840 23129399.973 10 0 60593 11700.00000 0 -7503271.186 8302060.059 22951930.966 10 0 60593 12600.00000 0 -10063760.207 7200219.082 22330126.489 10 0 60593 13500.00000 0 -12602287.847 6324825.272 21275760.290 10 0 60593 14400.00000 0 -15050229.789 5681612.297 19808980.031 10 0 60593 15300.00000 0 -17340314.578 5263889.229 17957942.588 10 0 60593 16200.00000 0 -19409248.215 5052985.825 15758294.181 10 0 60593 17100.00000 0 -21200193.725 5019213.792 13252503.068 10 0 60593 18000.00000 0 -22665002.217 5123305.118 10489055.612 10 0 60593 18900.00000 0 -23766101.373 5318268.217 7521529.463 10 0 60593 19800.00000 0 -24477960.821 5551584.441 4407560.534 10 0 60593 20700.00000 0 -24788071.050 5767652.343 1207723.207 10 0 60593 21600.00000 0 -24697392.649 5910375.763 -2015654.421 10 0 60593 22500.00000 0 -24220255.118 5925784.812 -5199716.470 10 0 60593 23400.00000 0 -23383707.945 5764576.693 -8282321.116 10 0 60593 24300.00000 0 -22226350.402 5384466.129 -11203272.326 10 0 60593 25200.00000 0 -20796689.173 4752242.987 -13905515.411 10 0 60593 26100.00000 0 -19151093.588 3845447.066 -16336270.870 10 0 60593 27000.00000 0 -17351435.759 2653586.555 -18448082.431 10 0 60593 27900.00000 0 -15462516.627 1178846.415 -20199757.167 10 0 60593 28800.00000 0 -13549388.050 -563744.819 -21557178.090 10 0 60593 29700.00000 0 -11674685.257 -2546697.873 -22493972.706 10 0 60593 30600.00000 0 -9896083.154 -4730979.441 -22992024.367 10 0 60593 31500.00000 0 -8263984.097 -7067424.062 -23041816.787 10 0 60593 32400.00000 0 -6819534.276 -9498581.349 -22642605.873 10 0 60593 33300.00000 0 -5593051.213 -11960920.386 -21802416.668 10 0 60593 34200.00000 0 -4602926.878 -14387298.160 -20537866.860 10 0 60593 35100.00000 0 -3855050.267 -16709588.146 -18873821.822 10 0 60593 36000.00000 0 -3342771.009 -18861358.826 -16842889.408 10 0 60593 36900.00000 0 -3047402.548 -20780490.295 -14484765.821 10 0 60593 37800.00000 0 -2939240.706 -22411620.206 -11845446.599 10 0 60593 38700.00000 0 -2979051.897 -23708317.995 -8976319.167 10 0 60593 39600.00000 0 -3119965.831 -24634898.037 -5933155.531 10 0 60593 40500.00000 0 -3309691.011 -25167797.903 -2775025.276 10 0 60593 41400.00000 0 -3492958.285 -25296466.257 436849.722 10 0 60593 42300.00000 0 -3614088.774 -25023725.469 3640276.614 10 0 60593 43200.00000 0 -3619577.841 -24365595.870 6773286.423 10 0 60593 44100.00000 0 -3460586.691 -23350590.772 9775319.965 10 0 60593 45000.00000 0 -3095237.454 -22018513.006 12588382.907 10 0 60593 45900.00000 0 -2490616.143 -20418803.956 15158148.966 10 0 60593 46800.00000 0 -1624400.214 -18608514.029 17434991.476 10 0 60593 47700.00000 0 -486042.970 -16649978.625 19374925.053 10 0 60593 48600.00000 0 922534.685 -14608295.252 20940440.831 10 0 60593 49500.00000 0 2586774.658 -12548705.185 22101220.696 10 0 60593 50400.00000 0 4479842.529 -10533986.750 22834717.924 10 0 60593 51300.00000 0 6563505.736 -8621966.675 23126593.860 10 0 60593 52200.00000 0 8789495.011 -6863251.181 22971002.455 10 0 60593 53100.00000 0 11101295.239 -5299269.783 22370716.891 10 0 60593 54000.00000 0 13436294.336 -3960712.227 21337094.899 10 0 60593 54900.00000 0 15728203.707 -2866423.345 19889881.997 10 0 60593 55800.00000 0 17909652.124 -2022802.156 18056854.528 10 0 60593 56700.00000 0 19914846.987 -1423731.085 15873307.197 10 0 60593 57600.00000 0 21682193.237 -1051039.394 13381392.732 10 0 60593 58500.00000 0 23156760.880 -875482.703 10629324.308 10 0 60593 59400.00000 0 24292497.369 -858198.643 7670454.342 10 0 60593 60300.00000 0 25054090.907 -952578.268 4562246.203 10 0 60593 61200.00000 0 25418404.549 -1106474.662 1365158.157 10 0 60593 62100.00000 0 25375418.650 -1264655.134 -1858538.765 10 0 60593 63000.00000 0 24928639.758 -1371392.219 -5045985.253 10 0 60593 63900.00000 0 24094956.724 -1373082.070 -8134975.383 10 0 60593 64800.00000 0 22903948.587 -1220776.978 -11065189.453 10 0 60593 65700.00000 0 21396672.551 -872522.040 -13779391.913 10 0 60593 66600.00000 0 19623983.031 -295394.137 -16224568.823 10 0 60593 67500.00000 0 17644453.145 532845.803 -18352980.658 10 0 60593 68400.00000 0 15521987.304 1622559.545 -20123108.218 10 0 60593 69300.00000 0 13323226.819 2971549.584 -21500471.899 10 0 60593 70200.00000 0 11114859.184 4564918.484 -22458307.648 10 0 60593 71100.00000 0 8960945.354 6375476.068 -22978086.245 10 0 60593 72000.00000 0 6920378.191 8364677.333 -23049866.120 10 0 60593 72900.00000 0 5044578.959 10484051.173 -22672473.666 10 0 60593 73800.00000 0 3375527.964 12677059.202 -21853508.665 10 0 60593 74700.00000 0 1944210.686 14881305.756 -20609176.129 10 0 60593 75600.00000 0 769542.553 17031005.630 -18963949.358 10 0 60593 76500.00000 0 -142185.162 19059605.581 -16950072.281 10 0 60593 77400.00000 0 -797318.079 20902449.556 -14606912.268 10 0 60593 78300.00000 0 -1214312.758 22499376.252 -11980177.323 10 0 60593 79200.00000 0 -1422697.380 23797140.990 -9121014.009 10 0 60593 80100.00000 0 -1461565.690 24751561.619 -6085004.572 10 0 60593 81000.00000 0 -1377670.077 25329300.184 -2931083.371 10 0 60593 81900.00000 0 -1223196.000 25509207.601 279606.036 10 0 60593 82800.00000 0 -1053312.751 25283176.994 3484890.943 10 0 60593 83700.00000 0 -923604.302 24656471.916 6622764.150 10 0 60593 84600.00000 0 -887488.373 23647517.382 9632570.807 10 0 60593 85500.00000 0 -993731.882 22287163.786 12456165.446 10 0 60594 0.00000 0 -1284166.374 20617455.330 15039017.942 10 0 60594 900.00000 0 -1791698.709 18689953.583 17331249.922 10 0 60594 1800.00000 0 -2538699.288 16563687.843 19288579.828 10 0 60594 2700.00000 0 -3535835.405 14302813.568 20873164.677 10 0 60594 3600.00000 0 -4781398.347 11974076.834 22054320.285 10 0 60594 4500.00000 0 -6261153.198 9644187.401 22809108.718 10 0 60594 5400.00000 0 -7948719.032 7377207.532 23122782.203 10 0 60594 6300.00000 0 -9806465.719 5232062.907 22989075.280 10 0 60594 7200.00000 0 -11786892.546 3260277.230 22410339.211 10 0 60594 8100.00000 0 -13834434.123 1504023.277 21397515.233 10 0 60594 9000.00000 0 -15887621.332 -5429.391 19969945.664 10 0 60594 9900.00000 0 -17881509.984 -1248805.603 18155024.685 10 0 60594 10800.00000 0 -19750278.209 -2219408.757 15987693.324 10 0 60594 11700.00000 0 -21429885.713 -2923172.796 13509786.129 10 0 60594 12600.00000 0 -22860684.473 -3378178.638 10769240.030 10 0 60594 13500.00000 0 -23989871.381 -3613654.204 7819178.850 10 0 60594 14400.00000 0 -24773679.015 -3668499.077 4716889.855 10 0 60594 15300.00000 0 -25179210.729 -3589395.334 1522711.544 10 0 60594 16200.00000 0 -25185840.678 -3428584.308 -1701145.766 10 0 60594 17100.00000 0 -24786117.378 -3241403.880 -4891822.921 10 0 60594 18000.00000 0 -23986130.304 -3083691.937 -7987053.342 10 0 60594 18900.00000 0 -22805322.081 -3009167.923 -10926396.915 10 0 60594 19800.00000 0 -21275752.662 -3066905.896 -13652440.233 10 0 60594 20700.00000 0 -19440845.793 -3299008.841 -16111937.604 10 0 60594 21600.00000 0 -17353670.494 -3738585.426 -18256868.532 10 0 60594 22500.00000 0 -15074830.527 -4408117.299 -20045389.333 10 0 60594 23400.00000 0 -12670051.712 -5318287.951 -21442659.014 10 0 60594 24300.00000 0 -10207569.804 -6467324.054 -22421522.576 10 0 60594 25200.00000 0 -7755429.864 -7840877.837 -22963038.220 10 0 60594 26100.00000 0 -5378811.456 -9412455.591 -23056838.489 10 0 60594 27000.00000 0 -3137492.268 -11144373.892 -22701319.124 10 0 60594 27900.00000 0 -1083556.212 -12989202.529 -21903653.056 10 0 60594 28800.00000 0 740558.856 -14891632.502 -20679630.680 10 0 60594 29700.00000 0 2303593.794 -16790689.590 -19053330.998 10 0 60594 30600.00000 0 3586519.313 -18622199.706 -17056631.604 10 0 60594 31500.00000 0 4583064.457 -20321401.975 -14728568.492 10 0 60594 32400.00000 0 5299703.480 -21825599.724 -12114559.529 10 0 60594 33300.00000 0 5755105.026 -23076738.457 -9265507.794 10 0 60594 34200.00000 0 5979069.971 -24023803.416 -6236803.179 10 0 60594 35100.00000 0 6011005.463 -24624937.338 -3087242.283 10 0 60594 36000.00000 0 5898001.747 -24849191.118 122112.107 10 0 60594 36900.00000 0 5692594.453 -24677835.644 3329109.772 10 0 60594 37800.00000 0 5450307.596 -24105181.584 6471707.521 10 0 60594 38700.00000 0 5227081.104 -23138874.365 9489156.938 10 0 60594 39600.00000 0 5076690.875 -21799653.250 12323163.372 10 0 60594 40500.00000 0 5048269.203 -20120585.393 14918995.083 10 0 60594 41400.00000 0 5184028.817 -18145807.026 17226522.666 10 0 60594 42300.00000 0 5517285.096 -15928823.877 19201170.251 10 0 60594 43200.00000 0 6070858.614 -13530440.508 20804761.877 10 0 60594 44100.00000 0 6855924.529 -11016403.074 22006248.162 10 0 60594 45000.00000 0 7871357.139 -8454851.442 22782300.541 10 0 60594 45900.00000 0 9103597.854 -5913684.120 23117762.450 10 0 60594 46800.00000 0 10527053.637 -3457943.035 23005949.062 10 0 60594 47700.00000 0 12105011.407 -1147324.544 22448789.545 10 0 60594 48600.00000 0 13791032.884 966081.787 21456808.240 10 0 60594 49500.00000 0 15530774.489 2839733.980 20048943.685 10 0 60594 50400.00000 0 17264159.128 4442177.870 18252207.128 10 0 60594 51300.00000 0 18927811.624 5754122.670 16101184.968 10 0 60594 52200.00000 0 20457657.877 6769006.433 13637392.420 10 0 60594 53100.00000 0 21791580.059 7493026.806 10908488.787 10 0 60594 54000.00000 0 22872016.784 7944634.662 7967367.664 10 0 60594 54900.00000 0 23648398.430 8153510.767 4871138.310 10 0 60594 55800.00000 0 24079313.716 8159067.724 1680017.276 10 0 60594 56700.00000 0 24134314.241 8008540.011 -1543848.249 10 0 60594 57600.00000 0 23795278.386 7754743.066 -4737601.862 10 0 60594 58500.00000 0 23057274.430 7453597.155 -7838919.025 10 0 60594 59400.00000 0 21928884.059 7161522.450 -10787241.911 10 0 60594 60300.00000 0 20431970.537 6932817.788 -13524981.888 10 0 60594 61200.00000 0 18600899.984 6817136.641 -15998663.989 10 0 60594 62100.00000 0 16481247.857 6857169.779 -18159989.045 10 0 60594 63000.00000 0 14128045.116 7086635.180 -19966790.995 10 0 60594 63900.00000 0 11603638.463 7528662.282 -21383869.369 10 0 60594 64800.00000 0 8975255.558 8194640.432 -22383679.944 10 0 60594 65700.00000 0 6312378.508 9083581.031 -22946869.861 10 0 60594 66600.00000 0 3684036.843 10182020.551 -23062647.073 10 0 60594 67500.00000 0 1156134.027 11464468.126 -22728977.678 10 0 60594 68400.00000 0 -1211080.456 12894378.059 -21952608.440 10 0 60594 69300.00000 0 -3365288.179 14425605.141 -20748915.418 10 0 60594 70200.00000 0 -5264034.066 16004280.298 -19141583.194 10 0 60594 71100.00000 0 -6876235.037 17571026.519 -17162122.441 10 0 60594 72000.00000 0 -8183204.473 19063420.905 -14849236.770 10 0 60594 72900.00000 0 -9179152.644 20418598.774 -12248052.470 10 0 60594 73800.00000 0 -9871145.479 21575890.198 -9409227.309 10 0 60594 74700.00000 0 -10278526.711 22479378.507 -6387956.645 10 0 60594 75600.00000 0 -10431830.826 23080274.007 -3242896.834 10 0 60594 76500.00000 0 -10371235.240 23339004.374 -35027.142 10 0 60594 77400.00000 0 -10144618.945 23226935.343 3173527.644 10 0 60594 78300.00000 0 -9805310.775 22727651.012 6320691.451 10 0 60594 79200.00000 0 -9409622.825 21837741.526 9345625.490 10 0 60594 80100.00000 0 -9014272.839 20567066.379 12189889.162 10 0 60594 81000.00000 0 -8673803.497 18938483.111 14798552.099 10 0 60594 81900.00000 0 -8438106.113 16987053.009 17121237.431 10 0 60594 82800.00000 0 -8350151.613 14758756.632 19113077.706 10 0 60594 83700.00000 0 -8444022.870 12308771.641 20735566.729 10 0 60594 84600.00000 0 -8743330.021 9699383.016 21957292.400 10 0 60594 85500.00000 0 -9260074.712 6997610.413 22754537.683 99